Погода в Болниси

Погода в Болниси : погода сейчас, прогноз погоды и архив. Всё, что Вы хотите узнать о погоде в Болниси!

Поиск расширенной информации на нашем сайте:

Другие новости

Новости СМИ2

Главная страница сайта

Новости сайта

03.07.2017

Напоминаем, что на нашем специализированном сайте Метеоцентр.Азия вы можете получить высокодетализированные автоматические прогнозы погоды по пунктам России, СНГ и мира в авиационном формате (включающие направление и скорость ветра, видимость, явления погоды, количество и форму облачности, нижнюю и верхнюю границу облачности).

Рекомендуем: Свадьба на Бали и других островах

Погода в Болниси - сегодня

Время (UTC), дата Ветер
(°,м/с) 
Видим.   Явления Облачность Т
(°С)
Тd
(°С)
f(%) Тe
(°С)
Pmin
(гПа)
dP
(гПа)
Po
(мм)
O2
(г/м3)
Тmin Tmax R s Состояние
почвы
21 09.02.18 тихо ()   н/о    4/0 1000 м средняя 
[Ac trans]
+2.2 +0.3 87 +2  1018.4  715  286           
03 10.02.18 тихо ()   н/о    ясно 
-0.2 -1.4 92 -0  1019.1  0.1  715  288         
09 10.02.18 090 (В) 20000 м    1/0 1000 м средняя 
[Ac trans]
+8.7 -0.2 54 +10  1017.4  -0.2  715  279           
21 10.02.18 070 (В) н/о    10/10 600 м 
[Sc]
+4.6 +1.8 82 +5  1022.3  718  284           
03 11.02.18 070 (В) н/о    10/10 600 м 
[Sc]
+3.8 +2.3 90 +5  1020.4  -1.4  717  284           
09 11.02.18 070 (В) 10 км  слаб. дождь  10/10 600 м 
[Sc|Ns]
+4.3 +2.6 89 +5  1018.9  -1.1  716  283           
21 11.02.18 тихо ()   н/о    9/9 1000 м 
[Sc]
+1.6 -0.3 87 +2  1012.6  -1.1  711  285           
03 12.02.18 270 (З) н/о    9/9 1000 м 
[Sc]
+0.4 -0.9 91 +1  1010.6  -1.1  709  285           
09 12.02.18 тихо ()   20000 м    9/9 1000 м 
[Sc]
+10.4 -1.4 44 +10  1007.2  -0.5  708  275           
21 12.02.18 360 (С) н/о  {ливн. осадки}  ясно 
+8 -1.9 50 +9  1010.1  0.1  710  278           
03 13.02.18 тихо ()   н/о    8/0 1000 м средняя 
[Ac trans]
+4.1 -1.7 66 +4  1014.4  0.7  713  283      0.0     
09 13.02.18 090 (В) 20000 м    9/9 1000 м 
[Sc]
+9.2 +1.1 57 +10  1013.8  713  278           
21 13.02.18 тихо ()   н/о  слаб. дождь  10/10 600 м 
[Sc|Ns]
+3.5 +2.2 91 +4  1017.4  -0.4  715  284           
09 14.02.18 090 (В) 20000 м    6/4 1000 м средняя 
[Cu med, cong|Ac trans]
+8.9 +0.2 54 +9  1020.5  0.7  718  280           
21 14.02.18 050 (СВ) н/о    10/10 600 м 
[Sc]
+3.7 +1.9 88 +3  1026.5  0.2  721  286           
09 15.02.18 180 (Ю) 20000 м    9/9 1000 м 
[Sc]
+8.8 +2.1 63 +10  1027.5  -0.1  722  282           
21 15.02.18 тихо ()   н/о    10/10 600 м 
+3.9 +0.8 80 +4    1.1             
03 16.02.18 тихо ()   н/о    10/10 600 м 
[Sc]
+3.6 +1.5 86 +4  1032.1  0.3  725  288           
09 16.02.18 тихо ()   4000 м    10/10 600 м 
[Sc]
+5.3 +0.7 72 +5  1032.1  -0.6  725  286           
21 16.02.18 тихо ()   н/о    10/10 600 м 
[Sc]
+4.3 -0.2 73 +4  1029.6  -0.5  723  287           
03 17.02.18 тихо ()   н/о    10/10 600 м 
[Sc]
+3.7 +0.3 78 +4  1026.9  -1.2  721  287           
09 17.02.18 090 (В) 10 км    10/10 600 м 
+5.2 +0.8 73 +6    -1.2             
21 17.02.18 090 (В) н/о    10/10 600 м 
[Sc]
+4.4 +0.2 74 +5  1021.3  -0.3  717  284           
03 18.02.18 090 (В) н/о    10/10 600 м 
[Sc]
+3.7 +0.8 81 +5  1018.8  -1.7  716  284           
09 18.02.18 120 (ЮВ) н/о    н/о 
+4.9 +1.9 81 +5  1034.8  -2.3  714  282           
Время (UTC), дата Ветер
(°,м/с) 
Видим.   Явления Облачность Т
(°С)
Тd
(°С)
f(%) Тe
(°С)
Pmin
(гПа)
dP
(гПа)
Po
(мм)
O2
(г/м3)
Тmin Tmax R s Состояние
почвы

Для получения пояснительной информации подведите курсор к названию столбца.

ПОГОДА в Болниси - архив

Всё, что Вы хотите узнать о погоде в Болниси - удобно и подробно!

Выберите нужную дату (начиная с 1 января 2015* года) и нажмите кнопку "Найти".
Будут отображены архивные сводки погоды по пункту Болниси, начиная с указанной даты.


Отображать данные в формате CSV (для использования в таблицах Excel)


Внимание! Наш архив погоды предназначен исключительно для личного некоммерческого использования в познавательных целях. Если Вам необходимы официальные справки о состоянии погоды (для производственных, юридических, коммерческих и т.п. целей), обращайтесь в органы Росгидромета.

*Примечание: данная дата относится к архиву по метеостанциям СССР (Россия, СНГ, Балтия).
Архив по метеостанциям Зарубежной Европы и Азии (кроме Китая) хранится 10 дней, по другим регионам земного шара (Китай, Африка, Америка, Австралия, Океания) - 1 день.

Болниси - район местоположения метеостанции


Название, широта, долгота, высота метеостанции:
Болниси 41.4°ш. 44.6°д. 534 м над ур. моря [Грузия]

Дополнительная информация

В oтличие oт бoльшинства пoгoдных сайтoв мы публикуем пoдрoбную метеoинфoрмацию в детальнoм прoфессиoнальнoм фoрмате.

Характеристики температуры и влажнoсти вoздуха измеряются на высoте 2 м в тени вдали oт зданий и деревьев.
Скoрoсть ветра измеряется на высoте 10 м (на урoвне рoста челoвека скoрoсть ветра ниже в 1.5-2 раза). Если метеoстанция нахoдится в гoрoде или в лесу, тo скoрoсть ветра занижена на 2-4 м/с пo сравнению с oткрытым местoм. Скoрoсть ветра над акватoриями крупных рек и oзёр, а также на вершинах хoлмoв на 2-5 м/с выше, чем в oбычных услoвиях.
Атмoсфернoе давление в разных тoчках местнoсти мoжет значительнo oтличаться oт давления на метеoстанции, в зависимoсти oт услoвий рельефа (при пoдъёме на 10 м давление пoнижается примернo на 1 мм рт.ст.).